Wind_Speed
11 14 14 12 14 14 6 0 0 1 2 2 2 2 2 2 1 2 3 2 2 1 1 6 10 6 3 4 6 5 3 2 2 2 2 2 20 28 20 22 26 26 26 25 23 23 22 23 22 20 20 20 20 20 20 19 19 19 19 19 18 17 17 17 16 16 16 15 15 15 15 15 15 14 14 13 13 12 12 12 12 11 11 10 10 10 10 11 11 10 10 10 10 11 12 11 12
14 15 13 13 15 9 2 1 1 0 1 2 2 2 1 0 1 2 4 2 1 2 3 7 9 6 5 8 8 5 5 5 3 3 2 13 25 23 22 25 27 27 26 25 24 23 22 22 21 20 20 20 20 20 19 19 19 19 19 18 18 17 17 17 17 17 16 16 15 15 15 15 15 14 13 13 13 12 12 12 11 11 10 10 10 9 10 11 11 10 10 10 10 11 11 11 11
17 16 16 15 9 3 1 2 1 1 0 2 3 2 1 0 1 3 4 3 3 5 7 8 8 5 5 6 3 3 3 4 6 5 6 19 20 18 25 27 28 27 26 25 24 24 23 22 21 20 19 19 20 19 19 19 18 18 18 17 17 16 17 17 17 17 16 16 15 15 14 14 14 13 13 12 12 12 11 11 11 10 9 9 9 9 10 11 10 9 10 10 10 10 10 10 11
17 17 19 14 3 2 1 1 1 0 1 2 3 3 1 0 2 4 4 3 4 6 6 6 5 2 2 5 2 3 3 3 8 7 8 15 17 23 29 28 29 26 25 25 25 25 23 22 21 19 19 19 19 19 18 18 17 17 17 16 16 15 15 16 16 17 16 15 15 14 14 13 13 12 12 11 11 12 11 10 10 9 9 9 8 9 9 10 10 9 10 10 10 10 10 10 11
17 18 19 9 1 2 1 1 0 1 3 2 2 3 2 1 3 4 4 4 3 5 5 4 3 1 4 5 1 2 4 6 9 9 10 15 23 30 29 29 30 26 26 24 25 24 22 22 21 20 19 19 19 18 18 17 17 17 16 16 15 14 14 14 15 16 15 14 13 13 13 12 12 12 12 11 11 11 10 10 9 9 9 8 8 8 9 9 9 9 9 10 10 10 10 10 10
16 16 14 5 2 1 0 1 1 2 4 2 2 3 1 2 3 5 4 4 3 4 5 3 4 5 5 4 2 3 5 7 9 11 13 20 29 31 29 30 30 27 26 25 25 24 23 22 21 21 20 19 18 18 18 17 17 16 16 16 15 15 14 14 15 14 14 13 13 12 12 12 12 11 11 11 11 10 10 9 9 9 9 8 8 9 8 8 9 9 9 10 10 9 9 10 10
16 10 5 4 1 0 1 2 3 3 4 3 3 2 2 2 3 5 4 4 4 3 4 4 6 8 4 1 3 3 4 7 10 14 19 27 32 31 30 30 29 28 26 25 24 24 23 21 21 21 20 19 19 19 18 17 17 16 16 15 15 15 14 14 14 13 13 13 13 12 12 12 12 12 11 11 11 10 10 10 10 9 9 8 8 9 8 8 9 9 9 9 10 9 9 9 9
13 6 0 1 0 1 1 3 3 3 3 2 3 1 2 3 3 5 3 2 3 2 4 6 5 6 3 1 3 4 6 11 12 18 26 31 32 31 30 30 29 28 25 25 24 23 22 21 21 20 19 19 19 18 17 17 17 16 15 15 14 14 14 14 13 13 13 13 14 13 12 11 11 11 11 11 11 11 10 10 10 10 10 9 9 9 8 9 9 9 9 9 9 8 8 8 9
8 3 1 0 1 1 2 3 3 3 3 2 2 1 2 3 3 4 3 3 4 4 5 5 3 5 4 5 5 4 8 15 18 24 30 31 31 31 31 30 30 28 26 25 24 23 22 21 21 20 19 19 18 18 17 17 16 15 14 14 14 14 14 13 13 12 11 12 13 12 11 11 11 11 11 11 11 11 11 10 10 10 10 10 9 8 8 9 9 9 9 9 9 7 7 8 8
4 2 1 0 0 2 3 2 3 3 3 1 1 2 3 3 2 3 3 5 6 5 5 5 6 7 7 6 4 3 11 20 24 27 30 31 31 30 29 29 30 29 27 27 25 24 22 21 21 20 19 19 18 17 17 16 15 15 14 14 13 13 13 13 12 11 11 11 12 11 11 11 10 11 11 11 11 11 10 10 10 10 10 10 10 9 9 9 9 8 8 8 8 7 7 8 8
2 1 0 1 1 2 2 2 3 3 2 0 1 2 3 3 3 3 3 6 7 6 5 6 7 8 8 5 3 7 17 25 28 29 30 30 29 29 28 29 29 28 28 28 26 24 22 21 20 20 19 18 18 17 16 15 15 14 14 14 13 13 13 12 12 11 10 11 11 11 10 10 10 10 10 10 10 10 10 10 11 10 8 9 10 9 9 9 8 8 8 8 8 7 7 8 8
1 2 1 1 2 2 2 3 4 3 1 0 1 2 3 4 4 3 4 6 6 7 4 4 7 6 7 4 3 11 20 23 27 29 29 29 28 27 27 28 27 26 27 28 26 25 22 21 21 19 19 18 17 17 16 15 15 14 14 14 13 13 12 12 11 11 11 11 10 10 10 9 9 9 9 9 10 10 10 10 9 9 8 9 9 9 9 9 8 8 7 7 7 6 7 7 7
0 1 1 1 2 2 2 3 3 1 1 2 3 3 4 4 3 3 5 6 6 6 3 5 9 5 5 4 5 11 16 21 26 29 29 28 27 27 26 27 27 27 27 27 27 25 23 22 21 19 19 18 17 16 15 15 15 14 14 13 13 13 12 12 11 11 11 10 10 10 10 9 9 9 9 9 9 9 9 8 8 9 9 9 9 9 9 8 8 8 7 7 6 6 6 6 6
1 0 1 1 1 1 3 2 2 0 2 2 4 5 5 2 3 3 5 8 4 4 5 7 9 7 6 7 7 7 12 23 28 28 28 27 26 26 25 26 27 28 27 27 27 25 24 23 21 20 19 18 17 16 15 15 15 14 14 14 13 13 13 12 11 11 11 10 10 10 10 9 9 9 9 9 9 9 9 8 8 9 9 9 9 9 8 8 8 7 7 7 6 5 5 6 6
1 0 1 1 2 2 2 2 2 1 2 2 5 6 5 2 2 4 4 7 2 4 8 7 5 5 6 8 7 8 16 27 29 28 28 26 26 25 25 26 27 28 27 27 26 25 24 23 22 21 20 19 18 16 16 15 15 14 14 14 14 14 13 12 12 11 11 11 10 10 10 9 9 9 9 9 9 9 9 8 9 9 9 9 8 8 8 7 7 7 7 6 6 5 5 5 6
1 1 1 2 2 2 2 2 1 2 3 3 6 6 6 2 2 3 0 3 5 7 6 4 4 2 8 7 8 17 26 30 29 29 27 26 25 24 25 26 26 27 27 26 25 24 24 23 22 21 21 20 18 17 16 15 14 14 14 13 13 14 13 12 12 11 11 11 10 10 10 10 10 9 9 9 9 9 8 8 9 9 8 8 8 7 7 7 7 6 6 6 6 6 5 5 6
1 0 1 2 2 2 2 3 2 2 2 3 6 7 6 2 2 1 1 2 8 8 3 3 1 2 8 9 17 27 30 31 30 28 27 26 26 25 24 25 26 25 26 26 25 25 24 23 23 22 21 20 19 18 17 16 14 13 12 12 13 13 12 12 12 11 11 11 10 10 10 10 10 10 10 9 9 9 9 8 8 8 8 7 7 7 7 7 7 6 6 6 6 6 5 5 6
2 2 2 3 3 3 3 3 3 3 3 5 7 8 8 6 3 2 2 4 7 6 2 5 5 6 12 18 27 30 30 31 29 28 25 24 24 23 23 24 25 25 25 25 25 26 25 24 24 23 22 20 19 18 17 16 14 13 12 11 12 13 12 12 11 11 11 11 11 10 11 11 11 11 10 10 9 10 9 8 7 8 8 7 6 6 6 7 7 6 5 5 5 5 5 5 6
3 2 2 4 4 3 4 3 2 1 4 7 7 7 7 8 6 3 3 5 7 6 4 6 8 10 14 22 28 28 29 29 27 27 24 23 23 22 22 23 24 25 25 25 25 26 25 24 24 24 23 21 20 18 17 16 15 14 13 12 13 13 13 13 12 12 12 12 11 11 11 11 11 11 10 9 10 10 9 8 7 7 7 8 7 5 5 6 5 5 5 4 4 3 3 4 5
3 2 2 6 5 5 6 5 5 1 6 9 7 5 5 7 6 3 5 7 7 7 6 8 9 12 15 18 24 26 27 26 25 25 22 22 22 22 22 23 24 25 26 25 25 26 26 25 24 24 23 22 21 19 18 17 16 15 15 14 14 13 13 13 13 13 13 12 11 11 11 11 11 11 10 10 10 11 10 8 7 6 6 7 7 6 6 5 4 4 4 4 3 2 2 2 3
3 4 4 4 3 5 6 6 6 1 7 8 7 5 5 7 6 5 9 8 5 8 10 11 13 16 18 18 21 25 24 23 24 23 22 21 21 21 21 22 23 24 24 24 25 26 27 26 25 25 24 23 22 21 20 19 17 17 16 15 15 14 14 14 14 14 13 12 12 11 11 11 11 11 10 11 11 11 11 10 9 8 8 7 7 6 5 5 4 4 4 3 3 3 2 1 1
3 6 7 6 2 3 5 4 5 2 6 6 7 7 6 6 5 7 12 10 6 7 10 11 13 17 20 20 20 22 21 20 22 22 22 21 21 22 22 24 24 23 23 23 25 27 27 27 26 25 24 23 23 22 21 20 18 18 17 17 16 15 15 15 14 14 14 13 13 12 12 12 11 11 10 10 10 10 11 11 10 10 9 8 7 6 5 4 3 3 4 3 3 3 3 2 2
4 6 7 9 6 7 7 4 5 1 6 6 8 7 7 8 5 8 13 10 3 5 9 12 13 16 20 21 19 19 19 18 20 23 23 23 24 23 24 26 25 25 25 24 26 27 27 28 27 26 24 24 24 23 22 22 20 19 19 18 17 17 16 16 15 15 14 14 14 13 13 12 11 10 9 9 8 9 9 10 10 9 8 7 6 5 5 3 2 3 3 2 2 3 3 3 3
6 6 7 8 7 11 9 6 8 4 5 6 6 7 9 11 7 7 12 7 5 9 12 13 14 17 20 19 17 18 18 19 21 23 25 25 26 25 26 26 25 25 25 24 26 27 28 29 28 26 24 24 24 24 23 23 21 20 20 19 18 17 17 17 16 15 14 14 14 13 12 11 11 10 9 8 7 8 8 9 8 8 8 6 5 5 4 4 3 2 3 2 2 3 3 4 4
9 11 8 5 6 8 7 6 8 7 5 4 7 9 11 12 8 8 12 7 7 12 14 14 15 16 17 17 18 17 16 18 20 23 23 22 24 24 25 25 25 25 25 26 27 28 29 30 30 27 25 24 25 26 25 24 22 21 20 20 19 18 17 17 16 15 14 14 14 13 12 11 10 9 8 8 7 7 7 7 8 7 7 6 5 4 4 4 4 3 2 2 2 3 3 4 4
11 13 7 5 7 6 6 7 7 7 5 5 7 8 9 8 6 6 10 8 9 14 15 15 16 16 16 16 18 17 16 18 20 22 23 22 23 24 24 26 26 26 26 26 27 28 29 31 31 29 28 26 27 27 26 25 23 22 22 21 20 19 18 17 16 16 15 14 14 12 11 10 10 9 8 7 7 6 6 6 7 7 7 6 4 3 3 3 3 3 2 2 2 2 3 5 5
7 8 6 9 11 8 7 8 7 6 4 7 9 8 7 7 4 4 7 10 13 15 15 16 16 16 16 15 15 16 16 19 22 23 22 22 23 25 26 26 26 27 27 27 28 29 29 31 32 31 30 28 28 27 26 26 24 23 23 22 21 20 18 17 17 16 15 15 13 12 11 10 10 9 8 7 6 6 6 6 6 7 7 6 4 2 2 2 2 2 1 1 1 1 3 5 5
4 4 6 11 9 9 9 9 8 4 4 7 9 6 4 6 6 6 7 13 15 16 16 16 17 15 16 16 15 13 14 19 23 22 21 23 24 26 26 28 28 28 28 29 29 29 30 31 32 32 31 30 29 28 27 27 25 24 23 22 21 20 19 18 18 17 17 15 13 13 11 10 10 10 9 8 6 6 6 5 5 6 6 4 3 3 2 2 1 1 1 1 1 1 2 5 6
5 4 6 9 6 8 10 8 7 5 5 6 7 2 3 8 10 7 10 15 16 16 16 16 16 14 14 15 13 11 13 19 21 21 23 25 26 28 29 30 30 29 29 30 29 29 30 32 32 32 32 31 31 30 28 27 26 24 23 23 21 20 19 18 18 18 18 16 14 14 12 12 11 11 10 9 7 6 6 5 5 5 5 4 3 3 3 2 1 1 1 1 0 1 2 5 5
5 5 5 7 5 7 8 6 7 6 6 7 8 3 4 9 11 7 12 15 16 15 15 15 14 12 13 13 12 12 13 17 20 22 25 26 27 29 30 31 32 31 29 29 29 30 30 31 32 32 32 32 32 31 30 28 27 25 24 23 22 21 20 19 18 18 18 18 16 15 14 13 13 12 11 11 9 7 6 6 6 5 5 4 4 4 3 1 0 0 1 1 1 2 4 4 4
3 4 4 3 1 5 5 4 7 6 4 9 10 5 6 8 8 9 13 17 17 15 15 14 13 12 12 13 13 13 14 17 21 24 26 27 27 28 29 30 32 31 30 30 31 31 31 31 32 32 33 34 33 32 31 30 28 26 25 24 23 21 20 19 18 18 18 17 17 16 15 14 13 12 12 11 10 9 8 7 7 7 6 6 5 4 3 2 1 1 1 1 2 3 4 3 3
1 4 3 3 4 6 6 3 8 8 3 9 11 5 5 6 6 11 13 16 18 16 15 15 14 14 14 13 13 13 13 17 22 25 26 28 28 28 29 31 32 33 32 32 32 31 31 31 32 32 33 34 34 33 32 31 29 28 26 25 23 22 21 19 18 17 17 17 16 16 16 15 14 12 11 11 12 10 9 8 7 7 7 7 6 5 3 2 1 1 0 1 2 2 2 1 2
2 3 4 3 5 6 6 3 7 10 4 7 11 5 3 5 7 11 13 17 17 15 15 16 15 15 15 13 13 13 12 14 17 22 27 28 29 29 29 31 33 33 33 33 33 33 33 32 32 33 34 35 35 34 33 32 30 29 28 26 24 23 22 20 18 18 18 17 16 16 16 16 15 13 12 12 12 11 10 9 8 8 8 8 7 5 4 3 2 2 1 0 0 0 1 2 1
3 2 4 3 5 6 4 4 6 8 6 7 11 9 5 4 8 13 14 16 16 14 16 16 15 14 14 13 13 13 13 14 15 21 28 29 29 30 30 31 32 33 33 33 34 34 35 33 33 33 33 34 35 34 34 33 31 30 28 27 25 24 22 20 19 19 19 18 17 17 16 17 16 14 12 12 11 11 11 9 9 9 8 7 7 6 5 4 4 3 2 1 1 1 1 2 1
5 4 4 3 3 5 5 3 3 6 7 8 10 11 10 3 7 13 15 16 16 15 16 15 15 15 14 13 13 14 14 15 16 22 29 30 30 30 30 31 31 32 32 33 33 34 34 34 33 33 33 33 34 33 33 32 31 29 29 27 26 25 23 21 21 20 19 19 18 17 16 17 17 15 13 12 11 11 12 11 10 10 9 8 8 7 6 6 5 5 4 2 2 1 1 2 1
7 5 4 4 4 5 5 4 4 5 5 7 9 11 12 6 8 12 13 15 16 14 13 12 13 14 13 13 13 14 16 16 18 24 29 30 31 31 30 30 31 32 33 32 33 33 33 33 33 33 33 33 33 31 30 30 29 29 29 28 27 28 26 24 23 22 21 20 19 18 18 17 18 17 15 14 12 12 12 12 11 10 10 9 8 8 7 7 6 6 5 4 4 2 0 1 1
4 4 4 5 5 5 5 4 3 5 4 6 9 11 13 9 9 13 13 14 13 12 13 13 13 13 13 15 15 16 17 15 17 23 27 29 31 31 31 30 31 32 32 33 33 34 35 34 34 34 34 33 33 32 32 31 31 30 29 30 30 30 28 26 25 24 23 21 20 19 19 18 18 18 17 15 14 13 13 12 11 11 11 10 9 8 8 7 7 7 6 7 6 4 2 1 1
3 2 3 4 5 5 5 4 2 3 3 5 7 9 13 10 9 11 13 14 14 15 16 15 16 16 14 16 17 17 14 11 14 19 24 28 29 31 31 30 32 33 33 34 35 35 36 36 36 36 35 34 35 35 35 34 34 34 33 32 32 31 29 29 27 26 24 22 20 19 19 19 20 19 18 17 16 14 14 14 12 12 11 10 10 9 9 8 8 8 8 8 7 5 4 2 2
7 4 3 3 4 3 5 5 1 2 3 4 5 7 11 10 8 11 14 15 15 17 19 18 19 18 15 16 17 16 13 12 14 17 21 27 30 32 32 31 33 34 34 35 36 36 36 36 37 36 35 36 36 36 36 36 36 36 34 32 31 29 28 29 28 26 24 23 21 20 19 20 20 20 19 19 17 15 15 15 14 13 12 11 11 11 11 10 10 10 9 9 8 6 4 3 4
7 6 5 4 4 2 4 4 1 1 4 4 4 5 7 7 5 9 15 17 16 16 18 18 18 19 20 20 18 17 17 16 16 17 18 24 28 31 32 32 33 33 34 36 37 37 36 37 37 36 36 37 37 37 37 37 35 33 32 30 27 25 24 24 25 25 24 23 23 22 21 20 20 20 20 20 18 16 15 15 15 14 13 12 12 12 12 11 10 10 10 10 8 7 5 5 6
8 8 8 6 5 5 4 3 3 3 3 2 4 2 5 4 5 7 11 13 14 14 15 14 14 17 17 17 15 16 18 17 17 18 18 20 25 30 33 33 33 33 35 37 38 38 37 38 38 38 37 37 37 37 37 35 32 30 29 26 22 21 20 19 21 23 24 24 25 25 23 21 20 20 20 20 18 16 15 15 15 14 14 13 13 12 12 11 10 10 9 10 9 8 6 6 8
6 10 11 8 6 5 3 3 4 4 4 3 3 3 6 4 6 9 8 10 12 11 13 15 15 15 14 12 13 15 17 17 17 18 19 19 23 28 31 33 33 34 37 38 39 39 38 38 39 39 38 38 37 37 36 34 32 30 29 26 23 21 21 21 23 25 26 27 27 26 24 22 20 20 21 21 19 17 15 14 15 15 15 15 14 12 11 10 10 10 10 10 10 9 8 7 8
6 8 9 8 7 5 3 1 1 1 4 4 2 4 5 5 5 9 9 12 15 13 14 18 16 14 14 14 15 15 15 15 15 16 17 18 21 24 28 33 36 37 38 39 38 39 39 39 39 40 38 38 37 37 36 35 33 32 31 30 29 27 25 26 29 30 30 29 28 26 25 23 22 21 21 21 20 18 16 15 15 15 16 16 15 13 12 11 10 10 9 10 10 10 10 9 9
6 5 9 8 7 7 5 3 4 3 4 5 2 4 3 4 5 7 9 12 15 15 16 18 16 15 16 16 16 17 17 17 16 16 17 18 21 26 29 35 38 38 37 36 37 39 40 40 39 40 39 38 37 37 36 36 35 34 33 32 31 29 29 28 30 30 29 29 28 27 26 25 23 23 23 23 22 21 19 18 16 16 16 16 17 16 14 12 10 10 10 10 11 10 10 11 10
5 7 11 9 9 8 6 4 5 2 3 6 4 4 3 5 5 5 6 11 14 16 18 18 17 17 18 18 17 17 18 18 17 17 18 19 23 29 33 35 37 35 35 36 38 39 39 39 38 39 39 38 37 37 37 38 37 36 34 33 30 30 30 28 27 27 27 26 26 27 26 25 24 24 24 24 24 23 21 20 18 17 16 16 17 17 15 14 12 11 11 11 11 12 11 11 11
4 7 9 8 8 7 6 6 4 2 4 10 7 4 4 6 5 4 4 8 12 13 15 16 17 19 19 18 18 18 16 15 16 17 18 20 25 31 33 33 34 34 36 37 37 36 37 37 37 38 39 38 37 38 38 38 38 36 34 33 32 30 29 27 26 25 25 25 25 26 26 26 25 25 25 25 25 25 24 22 21 19 17 16 16 17 16 15 14 12 12 11 11 12 12 12 12
5 6 5 4 4 4 4 4 3 3 8 11 9 7 5 6 5 6 6 6 8 9 11 13 15 17 18 17 17 17 16 14 15 16 16 19 25 29 29 30 33 35 36 35 35 36 36 37 37 38 39 38 37 38 39 39 38 37 35 34 34 32 30 27 26 25 25 26 26 27 27 26 26 26 26 26 25 25 25 24 23 20 18 17 16 16 17 16 15 14 12 12 11 11 12 12 12
7 5 5 2 1 1 2 1 3 7 10 8 8 7 7 9 7 6 7 7 10 11 12 14 16 17 17 17 17 17 16 16 16 15 15 15 18 22 27 30 32 33 34 34 36 36 36 37 38 38 38 38 38 38 39 39 38 38 36 36 35 34 31 29 28 28 28 28 29 28 27 26 27 26 26 26 26 26 26 25 24 23 21 19 17 16 16 16 16 15 14 13 12 11 11 12 13
8 5 6 5 2 1 4 3 3 7 7 4 7 7 7 10 9 7 9 9 12 13 13 15 17 19 19 19 18 16 15 16 16 15 14 14 15 18 23 28 30 32 34 35 36 36 36 37 38 38 38 39 38 38 39 39 39 39 38 37 36 34 33 32 31 30 30 31 30 29 28 28 28 27 27 28 27 26 26 26 25 24 22 20 18 17 16 16 16 16 15 14 13 12 12 12 13
9 7 7 6 5 4 6 5 3 5 5 3 6 6 4 5 6 11 13 12 12 12 13 15 17 19 20 20 19 17 16 16 15 15 14 15 16 17 22 27 30 32 34 36 37 37 37 37 38 39 39 40 39 38 39 39 39 40 39 37 36 34 34 33 33 32 32 31 31 31 31 30 30 30 30 29 28 26 26 26 25 24 23 21 19 18 17 16 17 17 16 15 14 13 13 13 14
9 8 7 6 6 5 5 4 4 4 4 5 4 5 5 4 4 9 13 14 14 12 14 15 15 16 17 16 16 16 16 16 14 14 15 16 17 19 23 27 29 31 34 36 37 38 37 37 39 40 39 39 40 39 39 39 40 40 39 38 36 35 35 35 34 34 33 32 32 32 32 32 32 32 31 30 28 27 27 27 26 25 24 23 21 19 18 17 17 17 17 16 15 14 13 14 14
7 7 7 8 5 4 3 4 4 3 3 6 4 4 4 4 5 6 5 11 14 15 15 14 15 14 11 10 13 15 15 15 14 14 16 17 17 20 23 26 29 31 33 36 37 38 39 38 39 40 40 40 40 40 39 40 40 39 39 38 37 36 35 35 34 34 34 33 33 33 32 32 32 32 31 31 29 28 27 27 27 27 26 24 23 21 20 19 18 18 18 18 16 15 15 15 15
4 7 9 6 5 5 3 4 1 3 5 6 3 4 4 2 7 5 3 7 10 13 14 14 15 13 10 11 13 15 15 15 15 15 16 17 16 20 25 28 30 32 34 37 39 40 41 40 39 40 39 39 40 40 40 40 39 38 39 39 38 37 36 35 35 35 35 34 33 33 32 32 32 32 31 31 31 30 29 28 27 27 26 26 24 23 22 21 20 19 19 19 18 16 16 16 16
4 7 8 5 6 4 5 4 2 3 7 5 2 6 5 4 6 4 5 7 8 11 12 13 14 10 11 13 14 16 17 17 17 17 17 16 16 19 25 30 33 35 37 38 39 40 40 39 39 39 39 39 40 41 40 40 39 38 38 39 38 38 38 37 37 36 34 33 33 33 32 32 32 32 32 32 31 31 30 29 28 27 27 27 26 25 24 23 22 21 20 20 19 17 17 17 17
7 6 8 7 5 7 6 5 6 6 5 4 3 4 5 6 6 4 8 10 9 10 11 12 13 11 12 13 14 16 17 16 16 16 15 14 15 18 24 29 32 35 36 37 38 38 38 39 39 40 40 41 41 40 40 39 39 38 38 38 39 38 38 37 36 34 33 33 33 33 33 34 33 33 32 32 31 32 31 31 30 29 28 28 28 27 26 25 24 23 22 21 20 19 19 19 18
9 5 7 7 5 6 6 4 3 4 4 4 3 2 4 6 6 8 11 12 11 11 10 11 13 12 12 13 13 14 15 15 15 15 14 15 16 20 27 30 32 34 35 35 36 36 37 38 38 38 39 39 39 39 39 38 38 38 36 36 37 37 38 37 35 34 33 34 34 34 34 34 33 33 32 31 31 32 32 32 32 31 30 29 29 29 28 27 26 25 24 22 21 20 21 21 20
6 5 6 7 4 2 4 3 2 4 4 3 3 3 5 5 5 9 12 12 12 13 12 12 12 12 13 13 13 13 14 15 16 16 15 17 17 21 28 31 30 31 31 32 34 36 37 37 37 38 38 38 38 39 38 38 37 37 36 35 36 37 37 37 35 34 34 35 34 34 34 33 32 32 32 32 32 32 32 32 32 32 31 30 30 29 29 28 27 26 25 24 23 22 22 22 22
3 4 5 8 5 3 5 5 3 4 4 4 3 4 6 5 4 8 11 11 12 13 13 12 12 13 14 13 14 14 15 16 17 17 17 17 17 19 24 28 27 27 29 33 35 36 36 37 37 37 37 38 39 39 38 38 37 37 37 37 37 37 37 37 36 35 35 35 34 34 34 32 32 33 33 32 33 33 32 32 32 32 31 31 31 30 29 28 28 27 26 25 25 24 24 23 23
Wind_Direction
153 155 158 158 146 136 127 147 268 188 237 280 267 255 239 210 159 141 128 106 109 170 140 120 130 132 110 122 135 111 48 111 132 133 190 167 146 152 154 154 154 148 146 144 142 138 139 145 142 138 136 133 132 131 131 130 129 130 131 131 131 131 133 135 135 134 133 132 130 129 130 130 130 129 127 125 123 121 119 117 114 111 105 101 101 103 103 100 96 95 94 94 96 97 99 98 99
156 159 158 151 147 141 106 181 269 58 239 300 266 224 221 150 161 136 136 145 117 144 127 119 114 83 73 109 123 104 45 32 79 108 115 136 139 149 155 156 155 149 146 143 141 138 142 146 142 140 136 134 133 132 132 131 130 131 131 131 131 131 133 134 133 131 130 129 128 129 131 130 129 128 127 124 123 119 117 116 115 113 108 105 105 105 102 99 98 97 96 95 96 97 98 96 97
159 160 153 149 153 187 129 170 263 33 280 274 265 252 161 84 175 100 109 127 117 123 114 112 92 70 83 93 89 76 67 51 109 115 125 140 139 152 156 156 155 149 145 142 140 139 144 146 143 140 136 135 133 132 132 131 131 129 129 128 128 129 131 131 130 129 128 129 128 129 130 129 129 128 127 125 123 121 118 117 116 115 111 108 107 105 100 98 98 98 98 98 98 100 99 97 98
160 162 155 154 162 231 190 200 257 206 246 230 266 272 189 206 128 100 101 114 122 124 113 113 81 9 78 94 81 69 98 106 130 130 135 151 151 154 154 154 153 148 146 144 142 143 146 147 144 139 137 136 134 133 132 131 130 129 128 127 127 129 129 129 130 128 127 128 126 126 128 129 129 128 127 125 125 122 120 121 120 120 116 111 109 104 100 99 98 97 96 99 100 100 98 97 100
163 165 164 172 247 188 201 257 200 228 239 190 244 273 206 141 119 111 107 112 121 126 115 115 90 33 66 84 121 100 122 119 143 146 134 151 153 152 153 153 151 148 147 145 146 146 147 148 144 141 140 138 136 135 134 133 132 131 131 130 130 128 127 126 126 126 124 124 125 126 127 127 127 128 128 126 125 123 124 126 125 125 121 117 115 107 101 99 98 97 96 99 100 100 100 99 100
163 169 181 216 314 158 266 242 231 243 247 192 202 276 187 108 113 118 110 103 88 108 102 96 108 109 82 59 50 102 143 128 148 155 141 148 152 153 154 153 151 148 148 147 149 148 148 150 146 144 143 140 139 138 136 136 135 136 134 134 132 129 127 125 125 125 124 126 127 127 127 128 129 129 128 126 123 122 123 124 124 125 123 121 118 110 104 102 102 101 99 100 102 102 100 99 100
161 168 198 244 303 147 294 268 251 241 255 212 187 259 159 112 112 120 117 116 100 72 69 101 120 106 87 87 83 71 138 135 143 153 150 149 151 153 154 153 151 150 149 149 151 149 149 150 147 146 145 143 142 141 139 140 140 138 136 135 133 131 129 128 127 127 128 131 128 125 128 130 131 130 127 126 125 122 121 119 119 119 120 120 116 110 108 107 106 105 104 104 105 102 100 98 98
166 172 268 229 339 12 289 275 256 223 245 218 174 235 158 139 141 128 127 123 121 99 93 124 121 94 70 81 105 62 94 125 140 149 148 148 149 153 155 154 152 152 151 151 152 150 151 151 150 149 147 145 144 143 142 144 142 139 138 137 135 134 133 131 130 130 132 130 126 126 131 131 129 128 127 127 126 122 119 119 117 115 117 116 112 110 111 111 108 107 107 105 103 102 100 98 97
178 202 354 155 2 315 270 270 258 234 238 220 179 237 133 137 143 127 122 99 111 115 120 133 98 99 105 85 101 85 99 125 139 143 145 147 150 152 154 155 153 153 152 153 153 151 153 153 152 151 149 147 147 145 145 145 142 140 140 140 138 138 136 133 132 132 132 127 125 130 133 128 126 127 128 127 124 121 119 119 115 114 116 113 112 110 111 111 109 110 111 108 107 107 101 97 98
190 225 3 92 156 296 284 262 250 253 250 209 179 190 126 141 138 105 95 112 123 112 111 94 77 111 121 99 99 112 126 135 138 140 146 149 150 151 154 157 155 154 154 154 154 153 154 155 155 153 151 149 149 148 147 145 143 143 143 143 141 139 136 133 133 133 130 126 127 130 128 124 125 127 126 124 121 120 120 118 114 112 112 111 113 113 109 109 110 112 114 115 113 107 100 100 100
179 172 244 294 226 268 260 255 269 276 268 49 111 159 140 149 129 87 85 118 123 116 126 94 93 119 111 104 99 124 135 137 140 143 149 150 150 151 153 157 157 156 155 154 154 154 155 156 156 154 152 151 150 150 148 146 146 146 146 145 142 139 137 136 137 136 131 128 128 127 126 127 126 125 123 121 119 119 115 112 111 110 113 112 112 114 112 112 114 114 115 116 113 104 100 107 106
163 131 143 265 236 229 229 264 280 277 272 196 192 183 151 147 130 115 116 126 125 123 148 126 136 136 103 110 118 129 135 138 144 146 149 149 149 152 154 156 157 156 155 153 154 156 157 157 157 155 154 153 152 151 149 149 149 148 148 146 143 141 141 141 141 138 134 131 132 130 130 131 126 124 121 117 114 111 108 107 109 112 116 115 115 116 116 117 117 117 117 116 115 108 102 106 104
155 127 115 233 211 206 248 274 267 249 294 237 186 171 151 138 135 143 117 124 137 135 155 143 149 137 102 118 122 135 140 143 147 148 149 149 150 152 154 157 157 157 155 155 156 157 159 159 158 156 155 154 153 153 152 152 151 151 150 147 145 144 143 143 142 138 135 135 136 135 134 130 125 125 121 115 111 112 113 113 116 116 114 113 117 118 118 120 121 120 119 119 118 112 106 104 103
157 144 129 250 257 239 251 258 271 141 276 238 141 148 148 114 119 132 120 130 140 137 129 136 139 108 108 135 135 151 148 148 150 149 149 148 151 151 152 157 158 158 157 158 158 159 160 159 159 157 157 157 156 155 156 155 154 154 153 151 149 147 146 145 143 139 137 138 138 136 134 131 130 129 126 123 123 125 122 122 121 117 114 113 117 118 120 121 121 121 119 120 118 112 108 105 106
192 355 131 272 310 290 251 217 233 147 244 212 142 144 123 62 102 95 117 136 116 121 118 128 144 101 145 168 158 166 153 151 151 148 148 147 150 151 153 157 158 158 159 160 160 162 162 160 161 160 160 160 159 159 158 159 158 158 157 156 153 150 149 147 146 142 140 140 139 137 134 134 135 134 134 132 131 130 126 127 122 115 113 113 114 115 118 118 118 118 117 117 113 110 110 109 108
202 2 95 276 274 263 247 213 166 143 240 185 145 143 108 44 70 81 117 130 115 140 127 146 197 138 167 175 146 152 151 151 150 147 146 145 150 152 155 159 158 159 160 162 164 165 163 162 163 163 163 162 163 162 160 162 160 161 160 157 153 149 149 148 148 144 143 141 139 137 136 138 138 139 139 138 136 134 132 129 121 114 111 111 112 113 114 116 116 115 114 112 109 108 111 111 106
161 296 242 251 233 236 220 209 183 152 210 161 155 155 127 96 46 81 255 82 127 154 137 136 200 102 147 142 137 146 149 150 149 146 145 146 150 152 157 159 159 161 162 164 167 168 166 166 167 166 166 166 166 165 163 163 162 163 162 157 150 148 149 149 150 148 147 143 142 142 143 145 145 147 144 143 142 139 137 129 124 121 118 116 112 111 115 117 116 116 115 111 106 107 112 114 107
179 188 227 240 221 228 215 207 194 148 160 171 177 167 141 140 143 164 120 78 125 149 102 98 62 71 114 126 137 145 148 151 150 148 149 150 153 155 160 162 162 164 164 165 170 171 169 170 171 169 170 169 169 168 167 164 164 164 160 156 151 150 151 151 153 153 151 147 149 152 152 153 153 154 151 149 151 146 140 134 135 132 130 128 118 115 118 116 112 114 112 108 108 106 114 127 125
210 191 206 236 210 221 244 247 244 162 170 170 176 174 151 149 151 170 145 125 147 144 113 102 88 96 114 128 139 148 151 153 153 153 154 156 158 160 162 164 166 167 166 167 171 173 172 173 175 174 173 172 172 171 170 168 167 166 163 161 157 156 156 154 157 155 152 153 156 158 157 160 161 159 155 155 157 152 146 144 146 142 142 139 136 135 119 111 110 112 112 112 118 113 119 132 134
215 212 218 241 231 258 279 268 269 299 152 159 170 179 155 150 147 163 145 141 169 165 151 137 129 134 134 138 145 151 155 156 157 157 159 160 162 163 163 166 168 169 169 170 172 176 176 177 178 177 176 175 175 175 174 173 171 172 170 167 164 162 160 158 161 159 158 158 159 160 160 162 161 160 160 162 164 162 157 156 158 156 158 153 151 150 133 135 139 129 129 131 134 137 146 144 138
174 204 217 248 227 246 272 272 271 218 142 156 160 164 157 150 148 157 140 138 197 200 182 167 155 150 145 149 153 156 159 159 160 161 163 163 164 165 167 168 170 170 170 172 174 178 180 180 181 180 180 179 179 179 178 179 177 178 177 173 171 168 166 165 167 165 163 161 159 159 159 158 158 161 166 168 171 173 170 168 173 176 175 170 167 164 156 158 154 146 149 147 149 160 185 195 184
198 223 233 257 271 258 274 289 272 142 126 141 149 167 156 142 156 162 155 165 208 203 184 165 154 153 152 155 157 159 163 163 164 165 166 167 167 166 169 170 171 171 171 175 177 180 183 183 184 183 182 182 183 184 183 184 183 183 183 179 177 176 174 173 173 172 169 165 162 160 159 157 159 164 167 170 178 184 182 181 183 185 183 182 182 182 180 172 159 157 155 152 156 168 186 199 217
233 241 240 244 252 261 270 297 294 73 124 156 165 172 141 141 176 177 176 185 175 144 153 147 149 153 152 154 159 163 166 168 168 169 171 170 169 170 171 173 173 173 174 178 180 182 185 185 187 186 185 185 186 188 188 189 189 189 189 186 184 183 180 179 178 177 175 171 168 166 164 162 164 165 166 170 179 189 192 191 189 189 191 192 194 193 193 193 181 168 165 166 165 170 180 188 206
238 253 248 240 238 250 261 284 288 273 184 180 160 156 157 168 172 177 192 193 127 126 137 140 144 150 152 157 164 169 169 171 171 171 174 173 174 173 173 175 174 175 177 180 183 184 186 187 189 188 187 188 189 191 193 193 194 193 194 192 190 188 184 183 181 179 179 177 174 173 171 172 173 169 167 169 177 188 194 196 194 195 197 199 203 205 212 222 218 197 189 189 189 189 188 193 202
229 239 245 247 243 256 272 279 274 260 223 164 150 170 184 183 154 172 197 183 137 132 132 139 143 151 159 164 167 171 171 171 171 172 175 176 175 173 175 177 176 178 180 182 185 186 189 189 190 191 190 191 192 194 196 197 197 196 197 196 193 191 189 187 185 185 186 186 184 181 180 180 181 176 170 173 179 184 189 196 199 199 200 201 204 212 223 230 230 225 219 208 203 202 203 203 204
220 230 247 268 263 272 282 275 266 257 227 151 168 198 200 184 140 178 195 162 141 135 135 144 149 158 165 169 171 172 173 173 174 173 174 175 175 175 178 180 180 183 184 185 186 188 191 191 192 194 193 195 195 196 198 199 200 198 199 199 196 194 191 190 190 191 193 195 193 190 189 189 190 186 178 182 186 184 189 196 202 206 203 204 208 212 218 230 234 234 225 196 196 206 217 215 213
219 227 259 259 265 273 267 269 264 260 236 174 186 212 202 187 175 208 185 150 142 137 143 151 154 165 168 172 175 174 176 177 176 174 172 174 177 179 180 182 185 186 186 187 189 191 192 193 195 196 196 198 198 199 200 202 202 199 199 199 198 197 193 193 194 195 197 199 199 199 200 201 203 203 197 197 195 193 199 200 205 208 206 209 214 213 216 244 246 226 202 185 197 212 217 216 217
257 251 275 258 264 268 254 259 253 241 241 198 188 207 173 175 216 220 166 149 147 145 151 159 162 168 170 172 175 176 180 179 177 176 176 178 181 181 182 185 186 187 189 190 192 192 194 195 196 197 198 200 201 202 202 203 204 202 200 199 199 199 197 197 198 199 201 203 206 209 211 211 214 215 212 212 208 204 208 208 208 207 206 204 202 212 220 237 255 245 245 237 203 206 210 206 208
269 274 284 275 289 277 254 247 237 206 222 194 158 205 171 182 217 203 156 151 151 151 157 164 167 169 170 172 175 180 181 179 180 184 185 184 184 183 185 188 187 188 192 193 193 193 196 197 196 198 200 202 204 204 204 205 205 204 203 201 200 201 201 203 204 204 206 208 211 215 218 219 220 222 220 221 221 218 216 216 216 207 201 195 197 211 208 193 226 257 264 298 268 182 170 178 191
243 242 256 277 314 288 258 223 212 202 212 167 145 227 218 202 216 178 151 154 150 154 164 168 170 170 170 174 177 182 182 182 186 189 190 188 187 187 187 189 190 190 191 193 194 195 197 197 197 198 200 204 206 206 206 206 206 206 205 204 202 202 204 207 209 210 211 213 214 218 222 223 224 225 226 227 228 227 223 221 221 209 201 197 197 199 193 176 134 4 335 3 134 141 137 154 175
207 200 223 245 261 277 265 184 185 201 210 160 163 232 231 215 215 172 157 158 155 161 170 170 171 172 172 177 180 183 186 188 191 190 191 191 190 190 189 190 191 191 191 193 196 197 198 198 198 199 201 205 207 208 208 207 207 207 207 207 205 204 206 208 211 213 214 215 217 221 225 226 226 228 230 230 231 230 224 220 217 210 207 205 199 196 202 213 206 344 351 112 124 121 120 141 160
184 167 215 210 188 257 274 203 179 195 222 165 173 228 237 227 206 173 165 162 163 166 172 173 174 176 176 180 183 185 188 190 192 192 193 193 192 193 192 191 193 193 193 194 196 196 198 199 199 200 202 205 208 210 210 209 209 209 210 209 208 208 208 209 211 213 215 217 219 223 227 228 228 230 234 231 229 228 221 216 211 209 209 207 208 209 207 220 224 247 293 125 128 119 101 91 147
298 187 217 185 173 239 272 269 209 194 186 174 188 209 226 225 187 171 171 169 169 168 173 177 177 178 179 181 185 185 187 189 193 195 194 194 195 195 194 194 195 195 195 195 195 196 197 199 200 201 204 206 208 211 212 212 211 211 213 213 212 212 212 213 213 216 220 221 224 227 229 230 230 231 233 227 224 223 219 212 208 207 206 207 214 217 212 225 230 218 237 262 159 121 33 16 117
270 210 215 205 180 219 241 282 256 194 170 185 204 217 228 219 173 170 176 173 171 173 176 179 179 181 182 183 186 187 188 190 195 195 193 193 195 196 196 196 196 197 197 197 197 197 198 199 200 202 205 207 209 211 213 214 214 214 216 217 218 217 218 219 217 219 224 226 229 231 232 232 230 228 225 221 220 219 217 213 210 209 208 209 214 218 221 226 226 223 233 279 299 357 29 17 117
211 195 193 218 205 223 212 230 256 180 181 193 198 221 234 215 165 175 179 175 176 181 180 179 180 182 183 184 188 190 191 196 197 194 192 192 194 196 197 197 196 197 198 199 199 199 199 199 200 202 205 208 209 210 212 215 216 218 219 221 222 222 222 222 220 220 224 229 233 234 236 234 229 225 221 220 221 217 215 212 211 213 213 213 215 220 225 223 225 232 238 266 284 326 52 60 133
174 179 173 180 207 243 226 228 234 164 181 209 198 217 226 201 179 185 180 179 183 182 178 178 183 183 184 188 192 192 195 200 196 191 191 191 194 195 196 196 196 198 198 198 199 199 199 199 200 201 204 207 207 208 210 212 215 218 220 222 223 224 223 224 223 221 224 231 235 238 238 234 228 226 224 224 224 220 216 213 211 212 214 215 217 222 225 226 233 240 244 256 262 253 285 55 114
155 160 189 188 203 246 244 240 234 157 166 228 211 216 225 206 188 190 182 182 184 178 178 183 186 186 188 191 194 196 200 200 190 189 192 192 193 195 195 195 195 197 198 198 198 199 200 200 200 201 203 205 204 205 207 209 211 214 217 220 222 223 222 223 224 222 224 230 236 240 239 234 230 229 230 228 228 226 221 217 213 211 214 216 219 224 226 230 237 244 248 250 252 245 241 288 128
254 190 214 224 218 241 255 245 233 164 169 250 227 220 234 218 190 189 181 181 187 184 185 187 188 190 192 193 197 198 198 190 183 188 192 192 193 194 195 195 195 196 197 198 198 200 201 201 201 202 202 202 204 206 207 208 211 213 214 217 221 223 223 223 223 223 224 229 236 240 239 235 232 233 235 232 233 233 227 224 221 216 217 220 223 225 226 232 236 238 241 242 248 241 232 237 170
250 246 225 252 241 259 276 259 241 165 183 263 230 212 238 231 197 187 182 186 195 193 189 188 187 189 193 196 198 196 192 187 187 190 191 192 193 193 194 196 197 197 197 198 200 200 200 201 202 203 201 202 205 206 207 209 212 214 215 218 220 222 225 225 226 226 227 231 236 238 239 237 235 237 238 236 237 239 236 233 230 225 224 226 228 229 226 229 232 233 232 233 242 241 230 216 186
229 231 224 238 231 208 256 266 312 194 210 238 212 211 247 238 201 195 194 193 197 198 196 192 188 190 194 196 194 189 189 190 190 190 190 191 192 193 195 197 197 197 198 199 200 200 199 201 202 202 202 203 204 206 208 210 211 214 216 219 221 223 226 228 229 232 233 235 236 237 238 237 237 238 238 237 239 243 244 241 239 235 232 230 232 232 228 226 226 230 230 228 236 237 225 205 195
219 222 223 222 215 209 239 292 342 330 282 238 174 257 283 228 192 208 207 201 202 201 199 199 198 198 199 197 194 191 190 191 190 190 190 190 192 194 195 196 196 196 199 199 199 199 199 201 202 202 203 204 205 206 207 208 207 209 212 215 219 222 225 227 228 230 234 234 234 234 235 235 236 237 237 237 239 245 248 247 245 242 237 233 232 233 232 229 229 233 233 230 235 239 229 214 201
227 225 219 208 200 212 251 319 352 359 313 280 166 231 282 258 208 209 200 199 207 203 197 203 205 202 199 195 197 198 196 193 191 191 190 192 193 193 194 195 196 198 200 201 199 199 200 201 202 202 203 204 205 206 205 204 204 204 205 205 207 210 213 219 222 225 228 229 230 231 232 232 232 235 237 238 240 243 247 249 249 246 241 235 233 235 235 235 235 235 236 234 236 241 236 227 214
237 218 199 193 180 180 189 247 288 230 256 271 159 192 263 302 252 217 193 194 204 200 200 207 206 200 197 197 198 198 198 196 194 193 191 191 192 191 194 196 197 200 201 200 199 199 200 201 201 201 202 204 205 205 204 203 202 203 204 205 206 207 209 215 221 224 226 228 229 230 230 231 232 235 238 240 242 244 245 247 249 248 245 239 236 238 238 239 241 238 241 241 240 242 240 235 228
232 172 152 173 179 182 185 185 219 233 267 273 192 159 236 285 264 229 193 196 206 201 204 209 205 201 200 202 201 197 198 196 193 193 191 191 191 192 196 197 199 200 199 198 198 199 200 200 201 201 201 203 204 204 203 202 202 203 205 207 209 211 213 217 220 223 226 228 228 228 230 232 233 236 240 243 244 245 246 246 246 247 246 243 239 239 241 242 245 242 242 245 243 241 242 242 239
225 149 147 169 185 195 191 190 228 257 311 273 230 153 227 265 268 256 194 199 213 207 207 209 202 202 204 204 203 200 200 198 195 194 192 192 193 194 197 198 200 200 198 198 198 199 200 200 200 200 201 202 203 203 202 203 204 204 205 206 208 212 216 219 221 222 223 224 226 227 229 232 234 237 239 243 246 246 246 245 245 246 246 246 243 242 242 242 245 245 243 245 244 242 244 247 246
210 153 153 159 175 190 186 189 212 232 254 254 238 169 214 265 260 242 207 204 216 213 211 212 204 204 205 203 203 202 200 199 200 198 195 195 195 195 196 197 198 199 200 200 199 199 199 199 200 200 201 201 202 202 203 204 205 205 205 206 208 212 215 217 219 220 220 221 224 226 229 231 234 237 238 241 245 245 244 244 244 245 246 249 247 245 243 241 244 245 245 245 245 246 247 250 251
165 138 146 141 165 170 176 177 152 211 246 245 231 183 192 258 237 202 215 205 198 207 216 217 210 209 209 206 204 202 198 198 200 201 198 197 196 195 194 195 196 198 200 199 198 198 198 198 199 200 201 201 201 202 203 204 204 205 206 207 209 211 212 213 213 216 217 219 223 225 228 230 233 236 238 240 244 243 242 243 243 244 246 249 250 248 246 244 245 244 245 246 246 248 250 253 254
172 148 147 149 269 124 159 153 141 213 242 237 217 184 189 239 238 200 217 211 191 202 215 213 209 210 209 207 205 202 199 199 199 199 197 192 191 193 194 196 196 195 197 197 197 198 197 198 199 199 201 200 200 201 202 203 204 205 207 208 210 211 211 211 212 213 215 217 221 224 225 227 231 234 236 239 242 241 239 240 241 243 244 246 249 251 250 247 247 245 245 245 247 249 250 251 253
191 170 152 174 218 171 192 206 191 222 244 223 185 171 199 240 247 219 215 218 208 207 213 212 208 207 207 206 204 201 199 199 198 196 193 188 189 193 194 195 194 194 195 196 196 196 197 198 198 199 200 200 200 201 201 203 204 206 208 209 210 211 211 212 213 214 216 218 220 221 222 224 227 230 232 236 239 238 237 238 240 241 243 246 248 251 253 250 248 246 245 246 247 249 250 250 251
196 185 172 185 185 184 205 213 228 240 252 224 160 160 219 252 249 221 209 215 220 215 217 218 212 209 207 204 200 199 199 199 198 195 191 191 193 194 194 193 194 194 195 195 196 196 196 197 198 199 201 200 200 201 201 202 204 206 208 209 210 210 210 213 214 216 218 219 221 222 224 224 225 229 231 234 237 237 238 239 241 243 244 246 249 251 253 253 251 248 247 249 249 250 252 252 252
198 189 185 199 189 185 192 189 215 232 252 244 170 168 206 191 222 220 200 205 215 219 225 224 221 216 208 203 197 197 200 199 198 195 193 195 195 193 192 193 195 195 194 195 195 196 196 197 198 199 200 200 200 201 201 202 204 207 208 209 210 210 211 213 215 218 219 220 222 223 225 226 227 231 233 235 237 238 240 241 243 244 244 246 249 251 253 254 254 251 249 249 250 250 251 252 251
199 178 193 214 187 152 165 196 200 172 238 247 203 205 221 202 258 266 201 199 204 215 225 224 227 222 201 192 193 195 201 199 197 196 197 198 195 192 192 193 195 195 195 195 195 195 196 197 198 199 200 200 200 201 202 203 205 206 207 209 209 210 211 212 215 218 220 221 223 224 226 227 229 232 234 236 238 239 241 243 245 246 245 246 248 251 253 254 255 253 250 249 249 249 250 251 251
181 175 201 203 142 138 201 238 208 126 220 239 199 228 257 268 274 274 184 192 202 214 223 223 226 216 184 184 192 194 199 198 197 198 198 197 192 191 193 194 194 194 195 197 197 196 196 196 197 198 200 200 200 202 203 204 205 206 207 209 209 210 210 212 215 217 219 221 223 225 227 228 230 233 236 238 239 240 242 244 246 246 245 245 248 251 253 254 255 255 253 251 251 252 253 253 253
147 187 194 142 117 174 203 229 235 191 229 257 217 215 211 199 249 244 167 191 214 218 221 225 227 207 183 192 194 192 196 196 197 199 198 195 192 192 194 195 196 195 196 197 197 197 197 197 197 197 198 199 201 202 203 205 205 206 208 208 209 210 211 213 215 217 218 219 222 224 226 229 231 233 236 239 240 242 242 244 245 246 245 245 247 251 253 254 255 255 255 254 254 256 258 258 257
184 185 165 142 162 199 189 199 216 210 235 279 281 226 206 203 226 210 185 198 214 219 220 226 224 205 194 200 195 192 194 194 197 200 198 193 193 194 195 197 197 196 196 196 196 196 196 198 198 198 199 200 201 202 203 205 206 206 208 209 209 210 212 213 215 215 216 218 221 223 225 229 232 234 236 238 241 242 243 244 245 245 245 246 248 250 253 255 255 255 255 255 256 256 258 260 261
198 164 155 170 193 195 188 188 187 192 225 257 267 254 234 229 208 183 193 201 201 207 215 222 221 211 202 200 195 192 191 193 197 199 196 193 194 196 196 197 196 195 195 194 193 194 196 197 198 198 200 200 201 202 203 204 205 207 208 209 209 210 211 213 214 214 215 218 221 223 225 228 230 233 235 237 240 242 243 244 245 245 245 246 248 249 251 253 254 255 255 256 256 256 258 260 262
201 186 175 190 204 181 194 207 174 180 196 221 248 259 256 251 203 182 196 202 196 196 203 214 218 212 207 202 195 191 190 194 198 196 194 194 195 196 196 196 195 192 192 191 192 194 195 196 197 198 198 198 199 201 202 203 204 206 207 208 209 210 211 213 213 214 216 219 221 223 225 227 229 232 234 236 238 241 242 244 245 245 246 247 249 250 251 251 252 253 255 256 256 256 256 259 261
242 229 196 195 194 139 181 225 224 193 197 192 212 260 261 252 208 189 197 201 200 197 197 208 216 209 207 206 198 193 193 196 198 197 195 195 195 195 193 190 187 187 188 190 192 193 193 195 196 197 197 197 198 199 200 202 203 205 207 208 209 210 211 212 213 214 217 219 221 223 225 226 227 231 233 235 237 239 241 242 244 245 247 248 250 251 251 250 251 252 254 255 255 255 256 257 258
Height
781 782 783 785 785 787 790 791 803 804 803 812 808 804 796 784 785 787 789 787 787 784 776 776 778 781 786 791 794 795 798 800 805 814 815 803 798 803 804 806 808 809 811 812 814 815 817 819 819 820 821 821 822 823 824 825 826 827 828 829 829 830 831 832 832 833 834 835 836 837 838 839 840 841 841 842 843 843 844 844 844 845 845 846 846 847 847 847 848 848 848 848 848 848 848 848 848
781 782 783 786 785 789 792 792 807 810 808 816 806 801 792 784 786 788 789 787 785 780 774 775 777 781 782 784 788 793 798 798 798 800 801 799 801 804 805 807 809 810 812 813 815 816 818 819 820 821 822 823 823 824 825 826 827 828 829 830 830 831 832 833 834 835 835 836 837 838 839 840 841 842 843 843 844 845 845 845 846 846 846 847 847 848 848 849 849 849 849 849 849 849 849 849 849
781 783 783 787 787 788 792 795 807 813 815 817 804 794 788 788 789 786 785 782 779 775 774 776 779 783 785 790 791 796 801 798 796 797 799 800 801 803 806 807 809 812 813 814 816 817 819 820 821 821 822 823 824 825 826 827 828 829 830 830 831 832 833 834 835 836 837 838 839 840 841 841 842 843 844 844 845 846 846 846 846 847 847 848 848 849 849 850 850 850 850 850 850 850 850 850 850
781 783 783 784 789 791 794 800 805 810 817 815 804 791 786 789 787 784 781 778 775 774 777 779 784 784 785 795 795 796 802 799 797 797 799 800 800 802 805 807 810 812 813 815 817 818 820 821 822 822 823 824 825 826 827 828 829 830 831 831 832 833 834 835 836 837 838 839 840 841 842 843 843 844 845 845 846 846 847 847 848 848 848 849 849 850 850 851 851 851 851 851 851 851 851 851 851
781 783 783 783 790 793 795 802 802 808 810 805 802 791 785 785 783 783 779 777 774 775 777 780 789 786 785 793 794 798 801 798 798 796 798 800 801 803 805 808 810 812 815 816 818 820 821 822 823 823 825 825 826 827 828 829 830 831 832 833 834 835 835 836 837 838 839 840 841 842 842 843 844 845 846 846 847 847 848 848 849 849 849 850 850 851 851 852 852 852 852 852 852 852 852 852 853
781 783 783 783 787 788 795 805 806 809 799 791 796 788 783 781 780 781 778 777 774 774 775 779 787 788 792 793 791 795 796 796 798 797 798 800 802 804 807 808 811 813 815 817 819 820 822 823 824 825 826 827 828 828 829 831 831 833 834 835 835 836 837 837 838 839 840 842 842 843 843 844 845 846 847 847 848 848 849 849 850 850 851 851 851 852 852 853 853 853 853 853 854 854 854 854 854
780 784 785 787 788 787 801 808 806 808 792 784 789 784 781 780 778 779 780 781 779 776 776 780 781 787 799 795 793 794 792 794 794 796 798 799 803 805 807 809 811 814 816 818 820 821 823 824 825 826 827 828 829 830 831 832 833 834 835 836 837 837 838 839 840 841 842 843 844 844 845 846 846 847 848 848 849 849 850 850 851 851 852 853 853 853 854 854 854 855 855 855 855 855 855 855 855
781 784 785 791 796 795 804 807 803 802 789 780 781 780 779 778 776 778 781 781 783 781 780 781 778 790 801 794 798 797 791 794 794 797 799 801 804 806 809 810 812 814 817 818 820 822 823 825 826 827 828 829 830 831 832 833 834 835 837 837 838 839 839 840 841 842 843 844 845 846 846 847 847 848 849 849 850 850 851 851 852 853 853 854 854 854 855 855 856 856 856 856 856 856 856 856 856
781 785 786 793 801 803 806 806 801 793 786 780 779 778 776 775 775 777 780 780 781 782 783 781 778 792 801 796 801 797 793 795 795 799 800 803 805 807 810 811 813 814 817 819 821 823 824 826 827 828 829 830 831 832 833 834 835 836 838 838 839 840 841 842 842 844 844 845 846 847 847 848 848 849 850 850 851 852 852 853 853 854 854 855 855 856 856 856 857 857 857 857 857 857 857 857 857
783 785 789 796 803 810 809 804 797 788 783 780 778 777 775 775 775 776 779 780 780 782 784 779 781 792 799 800 802 797 796 796 796 801 802 805 806 808 811 812 814 815 818 820 822 824 825 827 827 829 830 831 832 833 834 835 837 838 839 839 840 841 842 843 844 845 845 846 847 848 848 849 849 850 851 851 852 853 853 854 854 855 855 856 856 857 857 857 858 858 858 858 858 858 858 859 859
787 787 789 799 807 812 808 799 793 786 781 779 778 775 774 774 775 777 778 780 779 783 783 780 789 794 796 801 801 797 796 796 797 800 803 805 807 810 812 814 816 816 818 820 823 825 826 828 829 830 831 832 833 834 835 836 838 839 840 840 841 842 843 844 845 846 846 847 848 849 849 850 850 851 852 852 853 854 854 855 855 856 857 857 858 858 858 858 859 859 859 859 859 859 859 860 859
791 791 792 805 810 808 801 798 794 786 783 781 781 775 772 772 776 779 779 782 781 784 783 781 788 790 798 804 800 798 797 798 799 801 804 806 808 811 812 815 816 818 820 821 823 825 827 828 830 831 832 833 834 835 836 837 839 839 841 841 842 843 844 845 846 847 847 848 849 850 850 851 851 852 853 853 854 855 855 856 856 857 858 858 859 859 859 859 859 859 860 860 860 860 860 861 860
790 792 796 805 804 802 798 796 791 787 787 781 779 774 770 774 777 778 778 782 782 786 783 778 781 785 798 803 798 799 798 799 800 802 805 807 809 811 813 815 817 819 821 823 824 826 828 829 830 832 833 834 835 836 837 838 840 840 842 842 843 844 845 846 847 848 849 849 850 851 851 852 852 853 854 854 855 856 856 858 858 859 859 859 860 860 860 860 860 860 861 861 861 861 861 862 862
787 788 796 803 799 798 795 793 789 788 788 778 774 772 771 775 776 775 776 784 785 783 780 775 776 785 798 801 801 801 798 800 801 803 805 808 810 812 814 816 818 820 822 823 825 827 828 829 831 832 833 835 836 837 838 839 840 842 843 843 844 845 846 847 848 849 849 850 851 852 852 853 854 855 855 856 857 857 858 859 860 860 860 861 861 861 861 861 862 862 862 862 862 862 862 862 863
784 786 793 802 801 798 792 789 787 787 785 775 773 771 773 774 772 774 776 783 785 776 775 777 776 785 795 797 799 797 796 799 800 804 806 808 811 813 815 816 819 820 822 824 825 827 828 830 831 833 834 835 836 838 839 840 841 842 843 844 845 846 847 848 849 849 850 851 852 853 854 854 855 856 857 857 858 859 860 860 861 862 862 862 863 862 863 863 863 863 863 863 863 863 863 863 864
781 785 795 803 803 801 791 785 785 786 782 773 771 769 776 776 770 776 774 775 781 775 775 780 777 780 787 788 790 791 794 799 801 804 806 809 811 814 816 817 820 821 823 825 826 828 829 831 831 833 834 835 837 838 840 841 842 843 844 845 846 847 848 849 850 850 851 852 853 854 855 855 856 857 858 858 859 860 861 861 862 863 864 864 864 864 864 864 864 865 865 865 865 865 865 865 865
780 788 800 804 803 801 789 782 782 782 778 773 771 769 777 780 773 773 770 770 779 779 778 780 777 776 781 783 786 789 795 798 801 804 806 809 811 814 816 818 820 821 823 825 826 828 829 831 832 833 834 836 838 839 840 841 843 844 845 845 847 848 849 850 851 851 852 853 854 854 855 856 857 857 858 859 860 861 862 863 863 864 865 865 865 865 865 865 865 866 866 866 866 866 866 866 866
785 794 802 804 801 795 781 776 774 772 775 774 772 770 774 780 778 773 773 777 780 781 781 780 779 777 780 783 787 792 795 798 800 803 805 808 810 813 815 817 819 821 823 825 826 828 829 831 832 834 835 836 838 839 841 842 844 845 845 846 847 848 849 851 851 852 853 853 855 855 856 856 857 858 859 860 861 862 863 863 864 865 865 865 865 865 865 865 866 866 867 867 867 867 867 867 868
787 793 801 799 791 782 771 768 767 766 770 772 771 769 771 775 775 773 778 785 782 785 787 784 785 785 783 785 789 793 795 798 800 802 804 806 809 811 814 816 819 820 822 824 826 828 829 831 832 834 835 837 838 840 841 843 844 845 846 847 848 849 850 851 852 853 853 854 855 855 856 857 858 859 860 861 861 863 863 864 864 865 866 865 866 866 866 866 867 867 868 868 867 868 868 868 869
785 790 801 792 778 775 767 765 765 762 765 769 772 769 770 772 771 772 779 786 785 787 787 786 789 788 787 787 789 793 795 798 799 802 804 807 809 810 813 815 817 819 821 823 825 828 829 831 833 834 836 837 839 840 842 843 844 845 847 848 848 849 851 852 852 853 854 855 855 856 857 858 859 859 860 861 862 863 864 865 865 865 866 866 866 866 867 867 867 868 868 868 868 868 868 869 870
783 786 792 780 771 774 766 762 762 760 762 767 771 770 773 771 768 772 777 788 790 784 779 779 783 784 785 787 788 792 795 796 799 802 804 806 809 811 813 815 817 819 821 823 825 827 829 830 832 834 836 837 839 840 842 843 844 846 847 848 849 850 851 852 853 853 854 855 856 857 858 858 859 860 860 861 862 863 864 865 865 866 866 866 867 867 867 868 868 868 868 868 869 869 869 870 870
781 779 778 772 770 773 764 759 759 759 762 767 771 772 771 769 770 772 774 784 783 774 771 772 776 778 780 784 787 790 793 795 797 800 803 806 808 810 813 815 817 819 821 823 824 826 828 830 832 834 836 837 839 840 842 843 844 846 847 848 849 850 851 852 853 854 855 856 856 857 858 858 859 860 861 861 862 863 864 864 865 866 867 867 867 868 868 868 868 869 869 869 869 869 870 870 870
781 777 771 769 769 771 763 759 758 758 763 768 770 767 766 770 774 771 770 773 769 764 766 770 774 777 779 782 786 789 791 794 796 798 801 804 807 809 811 813 815 818 820 822 824 826 828 830 832 834 836 837 839 841 842 843 844 846 847 848 849 850 851 852 853 854 855 856 857 858 858 859 859 860 861 862 863 863 864 865 865 866 866 867 868 868 868 868 869 869 869 869 870 870 870 871 871
780 778 770 767 766 766 761 759 759 758 762 763 763 764 766 771 773 770 769 767 763 762 764 769 773 777 780 783 786 788 790 792 795 798 801 803 806 808 810 813 815 817 819 821 823 825 827 829 831 833 835 837 838 840 842 843 845 846 847 848 849 851 851 852 853 854 855 856 857 858 858 859 860 861 861 862 863 863 864 865 866 866 866 867 867 868 868 868 868 869 869 869 870 870 870 871 871
778 774 768 766 764 762 759 759 758 758 759 758 761 766 766 764 765 768 768 765 762 762 765 769 774 778 781 783 786 788 791 793 796 799 802 805 807 809 812 813 815 817 818 820 822 824 826 828 830 833 834 836 838 839 841 843 844 846 847 848 849 850 851 852 853 855 856 856 857 858 859 859 860 861 862 862 863 864 865 865 866 866 867 867 867 868 868 868 868 869 869 870 870 870 871 871 871
771 766 766 766 764 761 759 759 758 757 757 757 763 767 764 760 762 767 765 762 762 762 766 771 774 779 782 784 785 786 789 792 795 798 801 804 807 809 811 813 814 816 818 820 822 824 825 828 830 832 834 836 837 839 841 842 844 845 846 848 849 850 851 852 854 855 856 857 857 858 859 860 860 861 862 863 863 864 865 865 866 866 867 867 868 868 868 868 868 869 869 870 870 870 871 871 871
762 764 766 765 764 760 759 760 757 757 755 756 763 767 764 759 764 770 763 758 761 764 769 772 775 780 781 783 784 785 788 790 793 797 800 803 805 807 809 811 813 815 817 819 821 823 825 827 829 831 833 835 837 838 840 842 843 845 846 847 849 850 851 852 853 855 856 857 857 858 859 860 861 862 862 863 863 864 865 865 866 866 867 867 868 868 868 868 868 869 869 870 870 870 871 871 872
760 764 766 763 762 760 758 759 757 757 757 753 757 763 763 763 767 767 759 757 760 765 772 773 775 779 779 782 784 785 787 790 793 795 798 799 801 804 806 808 811 813 815 817 820 822 824 826 828 830 832 834 836 838 839 841 842 844 846 847 848 849 851 852 853 855 855 856 857 858 859 860 861 861 862 863 864 864 865 865 866 866 867 867 868 868 868 869 869 869 869 870 870 870 871 871 872
762 764 770 766 763 763 757 756 755 756 757 748 754 769 771 769 767 759 754 756 759 765 772 773 775 777 779 781 783 785 787 789 792 793 795 796 799 801 804 806 809 811 814 816 819 821 823 825 827 830 832 834 835 837 839 840 842 843 845 846 848 849 850 852 853 854 855 856 857 858 859 860 861 861 862 863 864 864 865 865 866 866 867 867 868 868 868 869 869 869 870 870 870 870 871 871 872
764 765 771 771 773 769 755 752 753 755 755 744 757 782 780 769 761 755 753 756 761 768 772 773 775 777 779 781 782 785 786 787 789 791 794 795 798 800 802 805 807 810 813 816 818 820 822 824 827 829 831 832 834 836 838 839 841 843 844 846 847 849 850 851 852 854 855 856 857 858 859 860 860 861 862 863 864 864 865 865 866 866 867 868 868 869 869 869 869 870 870 870 870 871 871 871 872
764 768 771 774 784 776 752 750 753 756 753 741 758 783 777 764 759 754 752 754 760 768 771 772 774 776 778 779 781 783 783 785 786 789 792 794 797 799 801 804 806 809 811 814 816 818 821 823 826 827 829 831 833 835 837 838 840 842 844 845 847 848 849 851 852 853 855 856 857 858 859 859 860 861 862 863 864 864 865 865 866 867 867 868 868 869 869 869 869 870 870 870 871 871 871 871 872
764 774 780 777 783 776 756 749 751 755 752 743 759 779 772 761 757 753 751 753 758 765 770 771 773 774 776 778 779 782 782 783 786 788 791 793 796 798 800 802 804 807 809 812 815 817 820 822 824 826 828 830 832 834 836 838 840 841 843 844 846 848 849 850 852 853 854 855 856 857 858 859 860 861 862 863 864 864 865 866 866 867 868 868 869 869 870 870 870 870 870 871 871 871 871 872 872
768 774 782 778 779 777 765 754 746 748 752 751 758 770 768 758 754 752 751 753 757 763 768 769 771 772 773 776 777 780 782 783 785 786 788 791 793 796 798 800 803 805 807 810 813 815 818 820 823 825 826 828 830 833 835 837 839 840 842 844 846 847 848 850 851 853 853 855 856 857 858 858 859 860 861 862 863 864 865 866 866 867 868 868 869 869 870 870 870 871 871 871 871 871 872 872 873
778 775 777 774 773 775 771 761 747 744 752 757 758 761 762 755 751 752 751 752 757 762 766 767 769 770 771 774 776 778 780 781 781 782 785 788 791 794 796 799 801 804 807 809 811 813 816 818 821 823 825 827 829 832 834 836 838 840 842 843 845 846 848 849 851 852 853 854 855 856 857 858 859 860 861 862 863 864 865 865 866 867 868 868 869 869 870 870 871 871 871 871 872 872 872 872 873
779 779 778 775 770 770 770 763 750 747 753 757 761 762 758 755 754 752 750 751 756 759 761 764 766 768 770 772 774 775 777 777 776 777 782 786 789 792 794 798 800 803 805 808 810 812 815 817 819 822 824 826 828 831 833 835 837 839 841 842 844 845 847 848 849 850 851 853 854 855 856 857 858 859 861 862 862 863 864 865 866 867 868 868 869 869 870 870 871 871 872 872 872 872 872 873 873
770 772 773 774 771 768 765 758 749 747 756 759 761 763 758 756 757 754 751 750 753 757 759 763 766 767 769 771 771 772 773 772 772 775 780 783 787 790 793 795 798 801 803 806 809 811 813 815 818 820 822 824 827 830 832 834 836 838 840 841 842 843 845 846 848 849 850 852 853 854 855 856 858 859 860 861 862 863 864 865 866 867 868 868 869 869 870 871 871 872 872 872 873 873 873 873 873
764 767 768 768 769 767 759 755 748 743 756 761 756 758 756 754 755 752 751 751 754 759 761 763 765 766 767 768 769 769 769 768 770 775 779 781 785 787 791 793 796 799 801 804 806 808 810 813 815 817 819 822 825 827 829 831 833 835 837 838 839 841 843 844 846 847 849 850 852 853 855 856 857 858 860 860 861 863 864 865 866 867 867 868 869 869 870 871 871 872 872 873 873 873 873 873 873
764 768 770 768 768 766 756 753 749 743 754 759 753 758 756 750 752 749 749 754 755 755 758 760 761 762 763 764 765 765 766 768 771 774 776 779 783 785 788 790 792 795 797 800 802 805 808 810 812 814 817 820 822 824 826 828 829 831 833 834 837 839 841 843 844 846 848 849 851 852 854 855 856 857 859 860 861 862 863 864 865 866 867 868 868 869 870 871 871 872 872 873 873 873 874 874 873
765 768 772 774 768 764 758 751 747 746 754 757 753 758 756 747 747 747 747 750 749 746 747 751 753 757 760 760 761 763 766 768 768 770 772 775 778 781 785 786 789 791 794 797 799 802 805 807 809 812 815 817 818 821 823 825 827 829 832 834 836 838 840 842 843 845 847 849 850 851 853 854 855 856 858 859 860 861 862 864 865 866 866 867 868 869 870 870 871 872 872 873 873 873 874 874 874
765 767 773 775 766 765 765 755 750 748 750 753 752 756 755 747 747 747 743 741 741 741 741 743 745 749 750 750 752 757 762 764 765 767 768 772 775 778 780 782 785 788 791 793 795 798 801 804 806 809 812 814 816 819 821 823 826 829 832 834 836 838 840 842 843 845 846 848 849 850 851 853 854 855 857 858 859 860 861 863 864 865 866 867 867 868 869 870 870 871 871 872 873 873 874 874 874
763 762 767 770 764 763 763 757 753 750 748 748 753 762 757 748 751 750 742 740 740 741 742 745 745 744 744 747 750 753 754 757 760 763 764 766 769 771 774 778 782 784 786 788 791 794 797 800 803 806 809 811 814 816 819 822 825 828 831 834 836 838 840 841 842 844 845 846 847 848 850 851 853 854 856 857 858 860 861 861 863 864 865 866 867 867 868 869 870 870 871 871 872 873 873 874 874
766 758 756 760 760 760 760 758 758 763 765 752 753 774 768 748 750 749 742 745 745 743 744 746 744 743 746 750 751 751 751 752 754 756 759 761 764 768 772 775 778 779 781 783 787 790 794 797 800 803 806 809 811 814 817 821 823 826 828 831 833 835 837 838 839 840 842 843 844 846 849 850 852 854 855 856 857 859 860 861 862 863 864 865 866 867 867 868 869 870 870 871 871 872 873 874 874
768 752 747 754 756 759 760 759 764 774 774 755 751 773 774 755 750 745 741 745 744 742 743 742 741 742 744 746 746 747 749 750 751 753 755 758 762 766 768 770 772 773 776 780 784 788 791 794 797 800 803 806 809 812 815 818 821 823 825 827 829 831 833 834 835 837 839 841 843 845 847 849 851 853 854 855 856 857 859 860 860 862 863 864 865 866 866 867 868 869 870 870 871 871 872 873 874
761 743 744 753 754 759 760 761 767 769 765 758 752 760 772 765 750 740 739 743 743 742 741 738 737 740 740 740 740 741 743 744 747 750 751 754 756 759 761 764 766 769 774 779 782 784 787 790 794 797 800 803 806 810 813 815 818 820 823 825 827 829 830 832 834 836 838 840 842 844 846 848 850 852 853 854 855 856 857 858 859 860 861 863 864 864 865 866 867 868 869 870 870 871 871 872 873
749 737 741 748 751 756 756 761 767 764 767 773 761 756 772 770 747 736 739 744 745 742 738 735 734 735 735 736 736 736 738 739 741 743 745 747 749 752 756 759 764 769 773 776 778 781 784 788 792 795 798 801 803 807 810 812 815 817 820 822 825 827 829 831 834 835 838 839 841 843 844 846 848 850 852 853 854 855 856 857 858 859 860 861 862 863 864 865 866 867 868 869 870 870 871 871 872
740 735 739 742 748 751 755 762 766 768 777 779 765 758 773 772 748 738 742 743 742 738 733 731 729 729 729 729 731 732 734 736 737 738 740 742 745 749 754 759 764 767 770 773 776 780 783 786 790 792 795 798 801 804 807 809 812 815 817 820 822 825 828 830 833 834 836 838 839 841 843 845 847 848 850 851 852 853 854 855 856 857 858 859 861 862 863 864 865 866 867 868 869 869 870 870 871
734 737 743 746 750 751 756 760 763 777 782 771 760 755 767 772 750 736 736 732 730 732 730 728 725 725 726 725 726 727 730 732 734 735 736 739 744 749 754 758 761 764 767 772 775 777 780 783 786 789 792 795 798 801 804 806 809 812 814 817 820 822 825 828 830 832 834 836 837 839 841 843 844 846 848 849 850 851 853 854 854 856 857 858 859 860 861 863 864 865 866 867 868 868 869 869 870
734 740 746 756 762 760 765 767 770 786 781 761 753 751 763 770 747 730 727 718 718 723 723 723 723 723 722 721 722 722 725 727 729 732 735 738 744 747 750 753 757 761 765 768 771 774 777 780 783 786 789 792 795 798 801 803 806 809 811 814 817 819 823 825 827 829 831 833 834 836 839 841 842 844 846 847 848 850 851 852 853 854 855 856 857 859 860 861 862 864 865 866 867 867 868 868 869
736 742 749 767 778 778 784 784 778 781 771 752 748 752 760 755 731 723 724 715 711 712 710 712 714 714 714 714 716 717 719 722 725 728 732 735 739 741 743 748 752 756 760 763 767 770 773 776 779 783 785 789 792 795 798 801 803 806 809 811 814 817 820 822 824 827 828 830 832 834 836 838 840 841 843 844 846 848 849 850 851 852 854 855 856 857 858 860 861 862 863 864 865 866 866 867 867
739 744 752 767 780 788 794 790 780 776 764 747 743 754 759 744 720 712 714 712 707 703 702 702 702 704 706 706 709 713 715 718 720 723 727 730 732 734 738 742 747 751 755 759 763 766 769 772 776 779 782 785 789 792 795 798 800 803 806 809 812 815 817 819 822 824 826 828 830 832 833 835 837 839 840 842 844 846 848 849 850 851 852 854 855 856 857 858 859 860 861 863 863 864 865 866 866
736 734 741 755 762 773 784 784 780 775 763 749 748 755 752 737 716 699 698 702 700 699 697 694 695 695 697 701 706 711 713 714 716 719 722 723 724 728 733 738 742 746 750 754 758 761 765 768 771 774 778 782 785 789 792 794 797 800 803 806 809 812 814 817 819 821 823 825 827 829 831 833 835 836 838 840 842 844 846 847 849 850 851 852 853 854 855 856 858 858 860 861 862 863 864 864 865
731 726 738 748 743 747 761 766 762 761 760 752 748 746 733 718 705 692 693 697 694 695 693 692 694 691 695 702 706 708 710 711 713 716 718 719 721 725 730 734 738 742 747 750 753 756 759 763 766 770 774 778 782 786 788 791 794 797 800 803 806 809 812 814 816 818 821 823 825 827 829 831 833 835 837 839 841 842 844 845 847 848 849 851 851 853 854 855 856 857 858 859 860 861 862 863 864
728 731 738 733 723 731 752 760 752 754 763 749 735 734 725 715 706 691 692 698 695 695 693 691 691 690 695 701 700 703 705 706 709 711 712 714 717 721 724 728 733 736 741 744 747 751 754 758 763 767 771 775 779 782 785 788 791 794 797 800 803 806 809 811 813 815 818 820 823 824 827 829 831 833 835 837 838 840 842 844 845 846 847 849 850 851 852 853 854 855 856 857 858 860 861 861 862
723 734 727 719 723 729 741 759 759 761 767 748 730 731 727 725 717 697 692 699 697 695 693 690 689 690 695 695 694 696 697 699 703 703 706 710 712 716 719 722 726 729 734 738 743 748 752 756 760 763 768 771 775 778 782 785 788 792 794 797 800 803 805 808 810 813 816 818 820 822 825 827 828 831 832 834 836 838 840 841 843 844 845 846 848 849 850 851 852 853 854 855 857 858 859 860 861
708 715 709 716 738 741 740 754 760 763 767 752 736 731 724 720 714 699 696 696 693 693 693 691 690 690 691 690 689 691 692 695 699 700 704 707 709 712 715 718 721 725 730 735 741 746 750 754 757 760 764 767 771 776 779 783 786 789 792 794 797 800 802 805 808 811 814 816 818 820 822 824 825 828 830 832 834 835 837 839 840 842 843 844 845 846 847 849 850 851 852 854 855 856 857 858 859
701 706 707 711 723 731 734 739 742 751 761 753 742 736 722 709 699 692 692 688 686 690 691 689 688 685 685 685 686 688 690 692 694 696 700 702 704 706 709 713 717 722 727 732 739 743 746 750 754 758 761 765 769 773 776 780 783 786 789 792 795 798 800 803 805 808 811 812 815 817 819 821 823 826 828 830 832 833 835 836 837 839 840 842 843 844 845 846 847 849 850 852 853 854 855 856 857
712 713 717 715 713 716 724 728 725 734 749 750 746 741 718 695 687 683 681 679 679 681 683 684 682 679 679 679 680 683 685 687 688 690 693 696 698 700 703 709 715 721 727 731 735 739 742 747 751 754 758 762 766 769 773 777 780 784 787 789 792 795 797 800 803 806 808 809 812 814 816 819 821 823 825 827 829 830 832 834 835 836 838 839 840 841 843 844 845 846 848 849 851 852 853 853 854
725 720 715 713 714 719 731 738 726 721 733 736 739 742 715 685 680 678 673 674 674 672 674 676 675 674 674 673 674 677 679 681 681 682 685 689 691 694 699 706 713 719 724 727 730 734 738 743 746 750 755 758 761 765 769 773 777 781 783 786 789 792 795 798 800 802 804 807 809 811 814 817 818 820 822 824 826 828 829 831 832 834 835 837 838 839 841 842 843 844 845 847 848 849 850 851 852